Starlink 35357

operational
NORAD ID: 65799 Int'l Des: 2025-218 Owner: SPXS Country: US Constellation: starlink
LEOCIRCULARRETROGRADESSO

About Starlink 35357

Description loading...

Live Position

Loading 3D Globe...

Upcoming Passes

Altitude History

Altitude vs Time

uPlot chart will show altitude changes over time

Two-Line Element Set

1 65799U 25218J 26062.21214637 .00004696 00000-0 32942-3 0 9994
2 65799 97.6035 286.5484 0002160 90.0056 270.1418 15.05653512 23993
Epoch: Mar 3, 2026 • Age: 16 hours

Current Status

Altitude 551.4 km
Velocity 7.59 km/s
Sub-Earth Point 16.15°N, 121.57°W
Launch Date Sep 26, 2025
Age 0.4 years
Type internet

Technical Details

Classification Payload
Mass 575.00 kg
Dry Mass 530.00 kg
Total Mass 575.00 kg
Length 0.30 m
Diameter 4.10 m
Span 29.00 m
Shape Box + pan
Manufacturer SPXS
Bus Type Starlink V2MO
Phase Status In Orbit
Owner/State SPXS/US

Large Constellations

Loading constellations...